Weather in Logroño

Spain     42°28′09″N   2°26′13″W
temp.,
°C
wind,
m/s
gust,
m/s
humid.,
%
clouds,
%
prec.,
mm/h
press.,
hPa
HPBL,
m
19 april, mon
mon1923:00+7wnw11664 0.0 102111
02:00+6w227152 0.0 102113
05:00+5w2271100 0.0 102020
08:00+5wnw2271100 0.0 101921
11:00+12wnw235197 0.0 1018391
14:00+17nw3437100 0.0 10161217
17:00+16n5438100 0.0 10141088
20:00+13nw2347100 0.0 101564
20 april, tue
tue2023:00+11wnw2245100 0.0 101758
02:00+10nw2249100 0.0 101627
05:00+7nw115454 0.0 101610
08:00+7sw005880 0.0 101611
11:00+10wsw115296 0.0 1016185
14:00+14s125035 0.1 10141256
17:00+15nne3348100 0.0 10121646
20:00+13n2363100 0.0 1013120
21 april, wed
wed2123:00+10wnw226995 0.0 101459
02:00+9wnw227797 0.0 101552
05:00+6wnw228691 0.0 101415
08:00+6wnw128810 0.0 101425
11:00+12nw116255 0.0 1014582
14:00+16ese324972 0.1 10111586
17:00+16ese3348100 0.0 10091562
20:00+15e3560100 0.1 1009192
22 april, thu
thu2223:00+12ese2265100 0.1 101029
02:00+11e4684100 0.3 1011238
05:00+9e4897100 2.0 1011485
08:00+9e4797100 4.4 1011525
11:00+9e4896100 1.5 1013521
14:00+10e4795100 2.6 1014529
17:00+10e3593100 0.2 1015412
20:00+10e378775 0.2 1015440
23 april, fri
fri2323:00+8e479610 0.0 1016222
02:00+7e369743 0.0 1016171
05:00+7e499873 0.0 1015306
08:00+8e51098100 0.0 1014399
11:00+12ese7981100 0.0 1014699
14:00+14ese8973100 0.1 1013707
17:00+13e5882100 0.1 1013440
20:00+13e598493 0.3 1012405